Year,Month,Day,Hour,Minute,Value (Times are PST for temperature in C)
2011,11,11,00,00,6.70
2011,11,11,00,01,6.70
2011,11,11,00,02,6.70
2011,11,11,00,03,6.70
2011,11,11,00,04,6.70
2011,11,11,00,05,6.80
2011,11,11,00,06,6.80
2011,11,11,00,07,6.80
2011,11,11,00,08,6.80
2011,11,11,00,09,6.80
2011,11,11,00,10,6.90
2011,11,11,00,11,6.90
2011,11,11,00,12,6.90
2011,11,11,00,13,6.90
2011,11,11,00,14,6.90
2011,11,11,00,15,6.90
2011,11,11,00,16,6.90
2011,11,11,00,17,6.90
2011,11,11,00,18,6.90
2011,11,11,00,19,6.90
2011,11,11,00,20,7.00
2011,11,11,00,21,7.00
2011,11,11,00,22,7.00
2011,11,11,00,23,7.00
2011,11,11,00,24,7.10
2011,11,11,00,25,7.10
2011,11,11,00,26,7.20
2011,11,11,00,27,7.20
2011,11,11,00,28,7.20
2011,11,11,00,29,7.20
2011,11,11,00,30,7.20
2011,11,11,00,31,7.20
2011,11,11,00,32,7.30
2011,11,11,00,33,7.30
2011,11,11,00,34,7.30
2011,11,11,00,35,7.30
2011,11,11,00,36,7.30
2011,11,11,00,37,7.30
2011,11,11,00,38,7.30
2011,11,11,00,39,7.30
2011,11,11,00,40,7.30
2011,11,11,00,41,7.30
2011,11,11,00,42,7.30
2011,11,11,00,43,7.30
2011,11,11,00,44,7.30
2011,11,11,00,45,7.30
2011,11,11,00,46,7.30
2011,11,11,00,47,7.30
2011,11,11,00,48,7.30
2011,11,11,00,49,7.30
2011,11,11,00,50,7.30
2011,11,11,00,51,7.40
2011,11,11,00,52,7.40
2011,11,11,00,53,7.40
2011,11,11,00,54,7.40
2011,11,11,00,55,7.40
2011,11,11,00,56,7.40
2011,11,11,00,57,7.40
2011,11,11,00,58,7.40
2011,11,11,00,59,7.40
2011,11,11,01,00,7.40
2011,11,11,01,01,7.40
2011,11,11,01,02,7.40
2011,11,11,01,03,7.40
2011,11,11,01,04,7.40
2011,11,11,01,05,7.40
2011,11,11,01,06,7.40
2011,11,11,01,07,7.40
2011,11,11,01,08,7.40
2011,11,11,01,09,7.40
2011,11,11,01,10,7.40
2011,11,11,01,11,7.40
2011,11,11,01,12,7.40
2011,11,11,01,13,7.40
2011,11,11,01,14,7.40
2011,11,11,01,15,7.40
2011,11,11,01,16,7.40
2011,11,11,01,17,7.40
2011,11,11,01,18,7.40
2011,11,11,01,19,7.40
2011,11,11,01,20,7.40
2011,11,11,01,21,7.40
2011,11,11,01,22,7.40
2011,11,11,01,23,7.40
2011,11,11,01,24,7.40
2011,11,11,01,25,7.40
2011,11,11,01,26,7.40
2011,11,11,01,27,7.40
2011,11,11,01,28,7.40
2011,11,11,01,29,7.40
2011,11,11,01,30,7.40
2011,11,11,01,31,7.40
2011,11,11,01,32,7.40
2011,11,11,01,33,7.40
2011,11,11,01,34,7.40
2011,11,11,01,35,7.40
2011,11,11,01,36,7.50
2011,11,11,01,37,7.50
2011,11,11,01,38,7.50
2011,11,11,01,39,7.50
2011,11,11,01,40,7.50
2011,11,11,01,41,7.50
2011,11,11,01,42,7.50
2011,11,11,01,43,7.50
2011,11,11,01,44,7.50
2011,11,11,01,45,7.60
2011,11,11,01,46,7.60
2011,11,11,01,47,7.60
2011,11,11,01,48,7.60
2011,11,11,01,49,7.60
2011,11,11,01,50,7.70
2011,11,11,01,51,7.70
2011,11,11,01,52,7.70
2011,11,11,01,53,7.70
2011,11,11,01,54,7.70
2011,11,11,01,55,7.70
2011,11,11,01,56,7.70
2011,11,11,01,57,7.80
2011,11,11,01,58,7.80
2011,11,11,01,59,7.80
2011,11,11,02,00,7.80
2011,11,11,02,01,7.90
2011,11,11,02,02,7.90
2011,11,11,02,03,7.90
2011,11,11,02,04,7.90
2011,11,11,02,05,8.00
2011,11,11,02,06,8.10
2011,11,11,02,07,8.10
2011,11,11,02,08,8.20
2011,11,11,02,09,8.20
2011,11,11,02,10,8.30
2011,11,11,02,11,8.30
2011,11,11,02,12,8.30
2011,11,11,02,13,8.30
2011,11,11,02,14,8.40
2011,11,11,02,15,8.40
2011,11,11,02,16,8.40
2011,11,11,02,17,8.50
2011,11,11,02,18,8.50
2011,11,11,02,19,8.50
2011,11,11,02,20,8.60
2011,11,11,02,21,8.60
2011,11,11,02,22,8.60
2011,11,11,02,23,8.70
2011,11,11,02,24,8.70
2011,11,11,02,25,8.80
2011,11,11,02,26,8.80
2011,11,11,02,27,8.80
2011,11,11,02,28,8.90
2011,11,11,02,29,8.90
2011,11,11,02,30,9.00
2011,11,11,02,31,9.00
2011,11,11,02,32,9.00
2011,11,11,02,33,9.00
2011,11,11,02,34,9.00
2011,11,11,02,35,9.10
2011,11,11,02,36,9.10
2011,11,11,02,37,9.10
2011,11,11,02,38,9.10
2011,11,11,02,39,9.10
2011,11,11,02,40,9.10
2011,11,11,02,41,9.10
2011,11,11,02,42,9.20
2011,11,11,02,43,9.20
2011,11,11,02,44,9.20
2011,11,11,02,45,9.20
2011,11,11,02,46,9.20
2011,11,11,02,47,9.20
2011,11,11,02,48,9.20
2011,11,11,02,49,9.20
2011,11,11,02,50,9.20
2011,11,11,02,51,9.20
2011,11,11,02,52,9.20
2011,11,11,02,53,9.20
2011,11,11,02,54,9.20
2011,11,11,02,55,9.20
2011,11,11,02,56,9.20
2011,11,11,02,57,9.20
2011,11,11,02,58,9.20
2011,11,11,02,59,9.30
2011,11,11,03,00,9.30
2011,11,11,03,01,9.30
2011,11,11,03,02,9.40
2011,11,11,03,03,9.40
2011,11,11,03,04,9.40
2011,11,11,03,05,9.50
2011,11,11,03,06,9.50
2011,11,11,03,07,9.60
2011,11,11,03,08,9.60
2011,11,11,03,09,9.60
2011,11,11,03,10,9.60
2011,11,11,03,11,9.60
2011,11,11,03,12,9.60
2011,11,11,03,13,9.70
2011,11,11,03,14,9.70
2011,11,11,03,15,9.70
2011,11,11,03,16,9.70
2011,11,11,03,17,9.70
2011,11,11,03,18,9.70
2011,11,11,03,19,9.70
2011,11,11,03,20,9.70
2011,11,11,03,21,9.70
2011,11,11,03,22,9.70
2011,11,11,03,23,9.70
2011,11,11,03,24,9.70
2011,11,11,03,25,9.70
2011,11,11,03,26,9.70
2011,11,11,03,27,9.70
2011,11,11,03,28,9.70
2011,11,11,03,29,9.70
2011,11,11,03,30,9.70
2011,11,11,03,31,9.70
2011,11,11,03,32,9.70
2011,11,11,03,33,9.70
2011,11,11,03,34,9.70
2011,11,11,03,35,9.60
2011,11,11,03,36,9.60
2011,11,11,03,37,9.60
2011,11,11,03,38,9.60
2011,11,11,03,39,9.60
2011,11,11,03,40,9.50
2011,11,11,03,41,9.50
2011,11,11,03,42,9.50
2011,11,11,03,43,9.40
2011,11,11,03,44,9.40
2011,11,11,03,45,9.40
2011,11,11,03,46,9.40
2011,11,11,03,47,9.40
2011,11,11,03,48,9.40
2011,11,11,03,49,9.40
2011,11,11,03,50,9.30
2011,11,11,03,51,9.30
2011,11,11,03,52,9.30
2011,11,11,03,53,9.30
2011,11,11,03,54,9.30
2011,11,11,03,55,9.30
2011,11,11,03,56,9.30
2011,11,11,03,57,9.30
2011,11,11,03,58,9.30
2011,11,11,03,59,9.30
2011,11,11,04,00,9.30
2011,11,11,04,01,9.20
2011,11,11,04,02,9.20
2011,11,11,04,03,9.20
2011,11,11,04,04,9.20
2011,11,11,04,05,9.20
2011,11,11,04,06,9.20
2011,11,11,04,07,9.20
2011,11,11,04,08,9.20
2011,11,11,04,09,9.20
2011,11,11,04,10,9.20
2011,11,11,04,11,9.20
2011,11,11,04,12,9.20
2011,11,11,04,13,9.20
2011,11,11,04,14,9.20
2011,11,11,04,15,9.20
2011,11,11,04,16,9.20
2011,11,11,04,17,9.20
2011,11,11,04,18,9.20
2011,11,11,04,19,9.20
2011,11,11,04,20,9.20
2011,11,11,04,21,9.20
2011,11,11,04,22,9.20
2011,11,11,04,23,9.20
2011,11,11,04,24,9.20
2011,11,11,04,25,9.30
2011,11,11,04,26,9.20
2011,11,11,04,27,9.30
2011,11,11,04,28,9.30
2011,11,11,04,29,9.30
2011,11,11,04,30,9.20
2011,11,11,04,31,9.30
2011,11,11,04,32,9.30
2011,11,11,04,33,9.30
2011,11,11,04,34,9.30
2011,11,11,04,35,9.30
2011,11,11,04,36,9.30
2011,11,11,04,37,9.30
2011,11,11,04,38,9.30
2011,11,11,04,39,9.30
2011,11,11,04,40,9.30
2011,11,11,04,41,9.30
2011,11,11,04,42,9.20
2011,11,11,04,43,9.20
2011,11,11,04,44,9.20
2011,11,11,04,45,9.30
2011,11,11,04,46,9.30
2011,11,11,04,47,9.30
2011,11,11,04,48,9.20
2011,11,11,04,49,9.20
2011,11,11,04,50,9.20
2011,11,11,04,51,9.20
2011,11,11,04,52,9.10
2011,11,11,04,53,9.10
2011,11,11,04,54,9.10
2011,11,11,04,55,9.00
2011,11,11,04,56,9.00
2011,11,11,04,57,9.00
2011,11,11,04,58,8.90
2011,11,11,04,59,8.90
2011,11,11,05,00,8.90
2011,11,11,05,01,8.80
2011,11,11,05,02,8.80
2011,11,11,05,03,8.80
2011,11,11,05,04,8.80
2011,11,11,05,05,8.80
2011,11,11,05,06,8.70
2011,11,11,05,07,8.70
2011,11,11,05,08,8.70
2011,11,11,05,09,8.70
2011,11,11,05,10,8.60
2011,11,11,05,11,8.60
2011,11,11,05,12,8.60
2011,11,11,05,13,8.60
2011,11,11,05,14,8.60
2011,11,11,05,15,8.60
2011,11,11,05,16,8.60
2011,11,11,05,17,8.60
2011,11,11,05,18,8.60
2011,11,11,05,19,8.50
2011,11,11,05,20,8.50
2011,11,11,05,21,8.50
2011,11,11,05,22,8.50
2011,11,11,05,23,8.50
2011,11,11,05,24,8.50
2011,11,11,05,25,8.40
2011,11,11,05,26,8.40
2011,11,11,05,27,8.40
2011,11,11,05,28,8.40
2011,11,11,05,29,8.40
2011,11,11,05,30,8.40
2011,11,11,05,31,8.40
2011,11,11,05,32,8.40
2011,11,11,05,33,8.40
2011,11,11,05,34,8.40
2011,11,11,05,35,8.40
2011,11,11,05,36,8.40
2011,11,11,05,37,8.40
2011,11,11,05,38,8.40
2011,11,11,05,39,8.40
2011,11,11,05,40,8.40
2011,11,11,05,41,8.40
2011,11,11,05,42,8.40
2011,11,11,05,43,8.40
2011,11,11,05,44,8.40
2011,11,11,05,45,8.40
2011,11,11,05,46,8.40
2011,11,11,05,47,8.40
2011,11,11,05,48,8.40
2011,11,11,05,49,8.40
2011,11,11,05,50,8.40
2011,11,11,05,51,8.40
2011,11,11,05,52,8.40
2011,11,11,05,53,8.40
2011,11,11,05,54,8.40
2011,11,11,05,55,8.40
2011,11,11,05,56,8.40
2011,11,11,05,57,8.40
2011,11,11,05,58,8.40
2011,11,11,05,59,8.40
2011,11,11,06,00,8.40
2011,11,11,06,01,8.40
2011,11,11,06,02,8.40
2011,11,11,06,03,8.30
2011,11,11,06,04,8.40
2011,11,11,06,05,8.40
2011,11,11,06,06,8.40
2011,11,11,06,07,8.30
2011,11,11,06,08,8.30
2011,11,11,06,09,8.40
2011,11,11,06,10,8.40
2011,11,11,06,11,8.40
2011,11,11,06,12,8.40
2011,11,11,06,13,8.40
2011,11,11,06,14,8.40
2011,11,11,06,15,8.40
2011,11,11,06,16,8.40
2011,11,11,06,17,8.40
2011,11,11,06,18,8.40
2011,11,11,06,19,8.40
2011,11,11,06,20,8.40
2011,11,11,06,21,8.40
2011,11,11,06,22,8.40
2011,11,11,06,23,8.40
2011,11,11,06,24,8.40
2011,11,11,06,25,8.40
2011,11,11,06,26,8.40
2011,11,11,06,27,8.40
2011,11,11,06,28,8.40
2011,11,11,06,29,8.40
2011,11,11,06,30,8.40
2011,11,11,06,31,8.40
2011,11,11,06,32,8.40
2011,11,11,06,33,8.40
2011,11,11,06,34,8.40
2011,11,11,06,35,8.40
2011,11,11,06,36,8.40
2011,11,11,06,37,8.40
2011,11,11,06,38,8.40
2011,11,11,06,39,8.40
2011,11,11,06,40,8.30
2011,11,11,06,41,8.30
2011,11,11,06,42,8.30
2011,11,11,06,43,8.30
2011,11,11,06,44,8.30
2011,11,11,06,45,8.30
2011,11,11,06,46,8.30
2011,11,11,06,47,8.30
2011,11,11,06,48,8.30
2011,11,11,06,49,8.30
2011,11,11,06,50,8.30
2011,11,11,06,51,8.30
2011,11,11,06,52,8.30
2011,11,11,06,53,8.30
2011,11,11,06,54,8.30
2011,11,11,06,55,8.30
2011,11,11,06,56,8.20
2011,11,11,06,57,8.20
2011,11,11,06,58,8.20
2011,11,11,06,59,8.20
2011,11,11,07,00,8.20
2011,11,11,07,01,8.20
2011,11,11,07,02,8.20
2011,11,11,07,03,8.20
2011,11,11,07,04,8.20
2011,11,11,07,05,8.20
2011,11,11,07,06,8.20
2011,11,11,07,07,8.20
2011,11,11,07,08,8.20
2011,11,11,07,09,8.20
2011,11,11,07,10,8.20
2011,11,11,07,11,8.20
2011,11,11,07,12,8.20
2011,11,11,07,13,8.20
2011,11,11,07,14,8.20
2011,11,11,07,15,8.20
2011,11,11,07,16,8.20
2011,11,11,07,17,8.20
2011,11,11,07,18,8.20
2011,11,11,07,19,8.20
2011,11,11,07,20,8.20
2011,11,11,07,21,8.20
2011,11,11,07,22,8.20
2011,11,11,07,23,8.20
2011,11,11,07,24,8.20
2011,11,11,07,25,8.20
2011,11,11,07,26,8.20
2011,11,11,07,27,8.20
2011,11,11,07,28,8.20
2011,11,11,07,29,8.20
2011,11,11,07,30,8.20
2011,11,11,07,31,8.20
2011,11,11,07,32,8.20
2011,11,11,07,33,8.20
2011,11,11,07,34,8.20
2011,11,11,07,35,8.20
2011,11,11,07,36,8.20
2011,11,11,07,37,8.20
2011,11,11,07,38,8.20
2011,11,11,07,39,8.20
2011,11,11,07,40,8.20
2011,11,11,07,41,8.20
2011,11,11,07,42,8.20
2011,11,11,07,43,8.20
2011,11,11,07,44,8.20
2011,11,11,07,45,8.20
2011,11,11,07,46,8.20
2011,11,11,07,47,8.20
2011,11,11,07,48,8.20
2011,11,11,07,49,8.10
2011,11,11,07,50,8.10
2011,11,11,07,51,8.20
2011,11,11,07,52,8.10
2011,11,11,07,53,8.20
2011,11,11,07,54,8.20
2011,11,11,07,55,8.20
2011,11,11,07,56,8.10
2011,11,11,07,57,8.20
2011,11,11,07,58,8.10
2011,11,11,07,59,8.10
2011,11,11,08,00,8.20
2011,11,11,08,01,8.10
2011,11,11,08,02,8.10
2011,11,11,08,03,8.10
2011,11,11,08,04,8.10
2011,11,11,08,05,8.10
2011,11,11,08,06,8.10
2011,11,11,08,07,8.10
2011,11,11,08,08,8.10
2011,11,11,08,09,8.10
2011,11,11,08,10,8.10
2011,11,11,08,11,8.10
2011,11,11,08,12,8.20
2011,11,11,08,13,8.20
2011,11,11,08,14,8.20
2011,11,11,08,15,8.20
2011,11,11,08,16,8.10
2011,11,11,08,17,8.20
2011,11,11,08,18,8.20
2011,11,11,08,19,8.10
2011,11,11,08,20,8.10
2011,11,11,08,21,8.10
2011,11,11,08,22,8.10
2011,11,11,08,23,8.10
2011,11,11,08,24,8.10
2011,11,11,08,25,8.10
2011,11,11,08,26,8.10
2011,11,11,08,27,8.10
2011,11,11,08,28,8.10
2011,11,11,08,29,8.10
2011,11,11,08,30,8.10
2011,11,11,08,31,8.10
2011,11,11,08,32,8.10
2011,11,11,08,33,8.10
2011,11,11,08,34,8.10
2011,11,11,08,35,8.10
2011,11,11,08,36,8.10
2011,11,11,08,37,8.10
2011,11,11,08,38,8.10
2011,11,11,08,39,8.10
2011,11,11,08,40,8.10
2011,11,11,08,41,8.10
2011,11,11,08,42,8.10
2011,11,11,08,43,8.10
2011,11,11,08,44,8.10
2011,11,11,08,45,8.10
2011,11,11,08,46,8.10
2011,11,11,08,47,8.10
2011,11,11,08,48,8.10
2011,11,11,08,49,8.10
2011,11,11,08,50,8.10
2011,11,11,08,51,8.10
2011,11,11,08,52,8.10
2011,11,11,08,53,8.10
2011,11,11,08,54,8.10
2011,11,11,08,55,8.10
2011,11,11,08,56,8.10
2011,11,11,08,57,8.10
2011,11,11,08,58,8.10
2011,11,11,08,59,8.10
2011,11,11,09,00,8.10
2011,11,11,09,01,8.20
2011,11,11,09,02,8.20
2011,11,11,09,03,8.20
2011,11,11,09,04,8.20
2011,11,11,09,05,8.20
2011,11,11,09,06,8.20
2011,11,11,09,07,8.20
2011,11,11,09,08,8.20
2011,11,11,09,09,8.20
2011,11,11,09,10,8.20
2011,11,11,09,11,8.30
2011,11,11,09,12,8.30
2011,11,11,09,13,8.30
2011,11,11,09,14,8.30
2011,11,11,09,15,8.30
2011,11,11,09,16,8.30
2011,11,11,09,17,8.30
2011,11,11,09,18,8.40
2011,11,11,09,19,8.40
2011,11,11,09,20,8.40
2011,11,11,09,21,8.40
2011,11,11,09,22,8.40
2011,11,11,09,23,8.50
2011,11,11,09,24,8.50
2011,11,11,09,25,8.50
2011,11,11,09,26,8.60
2011,11,11,09,27,8.60
2011,11,11,09,28,8.60
2011,11,11,09,29,8.60
2011,11,11,09,30,8.60
2011,11,11,09,31,8.70
2011,11,11,09,32,8.70
2011,11,11,09,33,8.70
2011,11,11,09,34,8.70
2011,11,11,09,35,8.70
2011,11,11,09,36,8.70
2011,11,11,09,37,8.80
2011,11,11,09,38,8.80
2011,11,11,09,39,8.80
2011,11,11,09,40,8.80
2011,11,11,09,41,8.80
2011,11,11,09,42,8.80
2011,11,11,09,43,8.80
2011,11,11,09,44,8.80
2011,11,11,09,45,8.80
2011,11,11,09,46,8.80
2011,11,11,09,47,8.80
2011,11,11,09,48,8.80
2011,11,11,09,49,8.80
2011,11,11,09,50,8.70
2011,11,11,09,51,8.70
2011,11,11,09,52,8.70
2011,11,11,09,53,8.70
2011,11,11,09,54,8.70
2011,11,11,09,55,8.70
2011,11,11,09,56,8.70
2011,11,11,09,57,8.80
2011,11,11,09,58,8.80
2011,11,11,09,59,8.80
2011,11,11,10,00,8.80
2011,11,11,10,01,8.80
2011,11,11,10,02,8.90
2011,11,11,10,03,8.90
2011,11,11,10,04,8.90
2011,11,11,10,05,8.90
2011,11,11,10,06,8.90
2011,11,11,10,07,8.90
2011,11,11,10,08,8.90
2011,11,11,10,09,8.90
2011,11,11,10,10,8.90
2011,11,11,10,11,8.90
2011,11,11,10,12,8.90
2011,11,11,10,13,8.90
2011,11,11,10,14,8.90
2011,11,11,10,15,8.90
2011,11,11,10,16,9.00
2011,11,11,10,17,9.00
2011,11,11,10,18,9.00
2011,11,11,10,19,9.10
2011,11,11,10,20,9.10
2011,11,11,10,21,9.10
2011,11,11,10,22,9.10
2011,11,11,10,23,9.20
2011,11,11,10,24,9.20
2011,11,11,10,25,9.20
2011,11,11,10,26,9.30
2011,11,11,10,27,9.30
2011,11,11,10,28,9.30
2011,11,11,10,29,9.30
2011,11,11,10,30,9.30
2011,11,11,10,31,9.30
2011,11,11,10,32,9.40
2011,11,11,10,33,9.40
2011,11,11,10,34,9.40
2011,11,11,10,35,9.50
2011,11,11,10,36,9.50
2011,11,11,10,37,9.50
2011,11,11,10,38,9.60
2011,11,11,10,39,9.60
2011,11,11,10,40,9.60
2011,11,11,10,41,9.70
2011,11,11,10,42,9.70
2011,11,11,10,43,9.70
2011,11,11,10,44,9.70
2011,11,11,10,45,9.70
2011,11,11,10,46,9.70
2011,11,11,10,47,9.70
2011,11,11,10,48,9.70
2011,11,11,10,49,9.70
2011,11,11,10,50,9.70
2011,11,11,10,51,9.80
2011,11,11,10,52,9.80
2011,11,11,10,53,9.70
2011,11,11,10,54,9.70
2011,11,11,10,55,9.70
2011,11,11,10,56,9.70
2011,11,11,10,57,9.70
2011,11,11,10,58,9.70
2011,11,11,10,59,9.70
2011,11,11,11,00,9.70
2011,11,11,11,01,9.70
2011,11,11,11,02,9.70
2011,11,11,11,03,9.70
2011,11,11,11,04,9.70
2011,11,11,11,05,9.70
2011,11,11,11,06,9.80
2011,11,11,11,07,9.80
2011,11,11,11,08,9.80
2011,11,11,11,09,9.80
2011,11,11,11,10,9.90
2011,11,11,11,11,9.90
2011,11,11,11,12,10.00
2011,11,11,11,13,10.00
2011,11,11,11,14,10.10
2011,11,11,11,15,10.10
2011,11,11,11,16,10.20
2011,11,11,11,17,10.20
2011,11,11,11,18,10.20
2011,11,11,11,19,10.20
2011,11,11,11,20,10.20
2011,11,11,11,21,10.20
2011,11,11,11,22,10.20
2011,11,11,11,23,10.20
2011,11,11,11,24,10.20
2011,11,11,11,25,10.20
2011,11,11,11,26,10.20
2011,11,11,11,27,10.30
2011,11,11,11,28,10.30
2011,11,11,11,29,10.30
2011,11,11,11,30,10.30
2011,11,11,11,31,10.30
2011,11,11,11,32,10.40
2011,11,11,11,33,10.40
2011,11,11,11,34,10.40
2011,11,11,11,35,10.40
2011,11,11,11,36,10.40
2011,11,11,11,37,10.40
2011,11,11,11,38,10.40
2011,11,11,11,39,10.40
2011,11,11,11,40,10.50
2011,11,11,11,41,10.50
2011,11,11,11,42,10.50
2011,11,11,11,43,10.50
2011,11,11,11,44,10.50
2011,11,11,11,45,10.50
2011,11,11,11,46,10.60
2011,11,11,11,47,10.60
2011,11,11,11,48,10.60
2011,11,11,11,49,10.60
2011,11,11,11,50,10.60
2011,11,11,11,51,10.50
2011,11,11,11,52,10.50
2011,11,11,11,53,10.40
2011,11,11,11,54,10.40
2011,11,11,11,55,10.30
2011,11,11,11,56,10.30
2011,11,11,11,57,10.30
2011,11,11,11,58,10.30
2011,11,11,11,59,10.30
2011,11,11,12,00,10.30
2011,11,11,12,01,10.30
2011,11,11,12,02,10.30
2011,11,11,12,03,10.30
2011,11,11,12,04,10.20
2011,11,11,12,05,10.20
2011,11,11,12,06,10.20
2011,11,11,12,07,10.20
2011,11,11,12,08,10.30
2011,11,11,12,09,10.30
2011,11,11,12,10,10.30
2011,11,11,12,11,10.30
2011,11,11,12,12,10.40
2011,11,11,12,13,10.40
2011,11,11,12,14,10.40
2011,11,11,12,15,10.50
2011,11,11,12,16,10.50
2011,11,11,12,17,10.60
2011,11,11,12,18,10.60
2011,11,11,12,19,10.70
2011,11,11,12,20,10.70
2011,11,11,12,21,10.70
2011,11,11,12,22,10.70
2011,11,11,12,23,10.70
2011,11,11,12,24,10.70
2011,11,11,12,25,10.70
2011,11,11,12,26,10.70
2011,11,11,12,27,10.70
2011,11,11,12,28,10.80
2011,11,11,12,29,10.80
2011,11,11,12,30,10.80
2011,11,11,12,31,10.80
2011,11,11,12,32,10.80
2011,11,11,12,33,10.80
2011,11,11,12,34,10.80
2011,11,11,12,35,10.80
2011,11,11,12,36,10.80
2011,11,11,12,37,10.80
2011,11,11,12,38,10.80
2011,11,11,12,39,10.90
2011,11,11,12,40,10.80
2011,11,11,12,41,10.80
2011,11,11,12,42,10.80
2011,11,11,12,43,10.70
2011,11,11,12,44,10.70
2011,11,11,12,45,10.60
2011,11,11,12,46,10.60
2011,11,11,12,47,10.50
2011,11,11,12,48,10.50
2011,11,11,12,49,10.40
2011,11,11,12,50,10.30
2011,11,11,12,51,10.20
2011,11,11,15,33,5.30
2011,11,11,15,34,5.30
2011,11,11,15,35,5.30
2011,11,11,15,36,5.30
2011,11,11,15,37,5.30
2011,11,11,15,38,5.30
2011,11,11,15,39,5.30
2011,11,11,15,40,5.30
2011,11,11,15,41,5.30
2011,11,11,15,42,5.30
2011,11,11,15,43,5.40
2011,11,11,15,44,5.30
2011,11,11,15,45,5.40
2011,11,11,15,46,5.40
2011,11,11,15,47,5.40
2011,11,11,15,48,5.40
2011,11,11,15,49,5.40
2011,11,11,15,50,5.40
2011,11,11,15,51,5.30
2011,11,11,15,52,5.30
2011,11,11,15,53,5.30
2011,11,11,15,54,5.30
2011,11,11,15,55,5.30
2011,11,11,15,56,5.30
2011,11,11,15,57,5.30
2011,11,11,15,58,5.30
2011,11,11,15,59,5.30
2011,11,11,16,00,5.30
2011,11,11,16,01,5.30
2011,11,11,16,02,5.30
2011,11,11,16,03,5.30
2011,11,11,16,04,5.30
2011,11,11,16,05,5.20
2011,11,11,16,06,5.20
2011,11,11,16,07,5.20
2011,11,11,16,08,5.20
2011,11,11,16,09,5.20
2011,11,11,16,10,5.10
2011,11,11,16,11,5.10
2011,11,11,16,12,5.10
2011,11,11,16,13,5.10
2011,11,11,16,14,5.00
2011,11,11,16,15,5.00
2011,11,11,16,16,4.90
2011,11,11,16,17,4.90
2011,11,11,16,18,4.90
2011,11,11,16,19,4.90
2011,11,11,16,20,4.80
2011,11,11,16,21,4.80
2011,11,11,16,22,4.80
2011,11,11,16,23,4.80
2011,11,11,16,24,4.80
2011,11,11,16,25,4.70
2011,11,11,16,26,4.70
2011,11,11,16,27,4.70
2011,11,11,16,28,4.70
2011,11,11,16,29,4.60
2011,11,11,16,30,4.60
2011,11,11,16,31,4.60
2011,11,11,16,32,4.60
2011,11,11,16,33,4.50
2011,11,11,16,34,4.50
2011,11,11,16,35,4.40
2011,11,11,16,36,4.40
2011,11,11,16,37,4.40
2011,11,11,16,38,4.40
2011,11,11,16,39,4.30
2011,11,11,16,40,4.30
2011,11,11,16,41,4.30
2011,11,11,16,42,4.30
2011,11,11,16,43,4.20
2011,11,11,16,44,4.20
2011,11,11,16,45,4.20
2011,11,11,16,46,4.20
2011,11,11,16,47,4.10
2011,11,11,16,48,4.10
2011,11,11,16,49,4.10
2011,11,11,16,50,4.10
2011,11,11,16,51,4.10
2011,11,11,16,52,4.00
2011,11,11,16,53,4.00
2011,11,11,16,54,4.00
2011,11,11,16,55,3.90
2011,11,11,16,56,3.90
2011,11,11,16,57,3.90
2011,11,11,16,58,3.90
2011,11,11,16,59,3.90
2011,11,11,17,00,3.90
2011,11,11,17,01,3.90
2011,11,11,17,02,3.90
2011,11,11,17,03,3.90
2011,11,11,17,04,3.90
2011,11,11,17,05,3.90
2011,11,11,17,06,3.90
2011,11,11,17,07,3.90
2011,11,11,17,08,3.90
2011,11,11,17,09,3.90
2011,11,11,17,10,3.90
2011,11,11,17,11,3.90
2011,11,11,17,12,3.90
2011,11,11,17,13,3.90
2011,11,11,17,14,3.90
2011,11,11,17,15,3.90
2011,11,11,17,16,3.90
2011,11,11,17,17,3.90
2011,11,11,17,18,4.00
2011,11,11,17,19,4.00
2011,11,11,17,20,4.10
2011,11,11,17,21,4.10
2011,11,11,17,22,4.10
2011,11,11,17,23,4.20
2011,11,11,17,24,4.30
2011,11,11,17,25,4.40
2011,11,11,17,26,4.50
2011,11,11,17,27,4.60
2011,11,11,17,28,4.70
2011,11,11,17,29,4.70
2011,11,11,17,30,4.80
2011,11,11,17,31,4.80
2011,11,11,17,32,4.80
2011,11,11,17,33,4.80
2011,11,11,17,34,4.90
2011,11,11,17,35,4.90
2011,11,11,17,36,4.90
2011,11,11,17,37,5.00
2011,11,11,17,38,5.00
2011,11,11,17,39,5.00
2011,11,11,17,40,5.00
2011,11,11,17,41,5.10
2011,11,11,17,42,5.10
2011,11,11,17,43,5.10
2011,11,11,17,44,5.10
2011,11,11,17,45,5.10
2011,11,11,17,46,5.10
2011,11,11,17,47,5.10
2011,11,11,17,48,5.10
2011,11,11,17,49,5.20
2011,11,11,17,50,5.30
2011,11,11,17,51,5.60
2011,11,11,17,52,5.80
2011,11,11,17,53,6.00
2011,11,11,17,54,6.30
2011,11,11,17,55,6.50
2011,11,11,17,56,6.60
2011,11,11,17,57,6.80
2011,11,11,17,58,6.90
2011,11,11,17,59,6.90
2011,11,11,18,00,7.00
2011,11,11,18,01,7.10
2011,11,11,18,02,7.10
2011,11,11,18,03,7.20
2011,11,11,18,04,7.20
2011,11,11,18,05,7.20
2011,11,11,18,06,7.20
2011,11,11,18,07,7.20
2011,11,11,18,08,7.30
2011,11,11,18,09,7.30
2011,11,11,18,10,7.40
2011,11,11,18,11,7.40
2011,11,11,18,12,7.40
2011,11,11,18,13,7.40
2011,11,11,18,14,7.40
2011,11,11,18,15,7.40
2011,11,11,18,16,7.40
2011,11,11,18,17,7.30
2011,11,11,18,18,7.30
2011,11,11,18,19,7.30
2011,11,11,18,20,7.30
2011,11,11,18,21,7.30
2011,11,11,18,22,7.30
2011,11,11,18,23,7.30
2011,11,11,18,24,7.30
2011,11,11,18,25,7.30
2011,11,11,18,26,7.30
2011,11,11,18,27,7.30
2011,11,11,18,28,7.40
2011,11,11,18,29,7.40
2011,11,11,18,30,7.40
2011,11,11,18,31,7.40
2011,11,11,18,32,7.40
2011,11,11,18,33,7.40
2011,11,11,18,34,7.30
2011,11,11,18,35,7.30
2011,11,11,18,36,7.40
2011,11,11,18,37,7.40
2011,11,11,18,38,7.40
2011,11,11,18,39,7.40
2011,11,11,18,40,7.40
2011,11,11,18,41,7.40
2011,11,11,18,42,7.40
2011,11,11,18,43,7.40
2011,11,11,18,44,7.40
2011,11,11,18,45,7.40
2011,11,11,18,46,7.40
2011,11,11,18,47,7.40
2011,11,11,18,48,7.40
2011,11,11,18,49,7.40
2011,11,11,18,50,7.40
2011,11,11,18,51,7.40
2011,11,11,18,52,7.40
2011,11,11,18,53,7.40
2011,11,11,18,54,7.40
2011,11,11,18,55,7.40
2011,11,11,18,56,7.40
2011,11,11,18,57,7.40
2011,11,11,18,58,7.30
2011,11,11,18,59,7.30
2011,11,11,19,00,7.30
2011,11,11,19,01,7.30
2011,11,11,19,02,7.30
2011,11,11,19,03,7.30
2011,11,11,19,04,7.30
2011,11,11,19,05,7.30
2011,11,11,19,06,7.30
2011,11,11,19,07,7.30
2011,11,11,19,08,7.30
2011,11,11,19,09,7.30
2011,11,11,19,10,7.30
2011,11,11,19,11,7.30
2011,11,11,19,12,7.30
2011,11,11,19,13,7.20
2011,11,11,19,14,7.20
2011,11,11,19,15,7.20
2011,11,11,19,16,7.20
2011,11,11,19,17,7.20
2011,11,11,19,18,7.20
2011,11,11,19,19,7.10
2011,11,11,19,20,7.10
2011,11,11,19,21,7.10
2011,11,11,19,22,7.10
2011,11,11,19,23,7.10
2011,11,11,19,24,7.20
2011,11,11,19,25,7.20
2011,11,11,19,26,7.20
2011,11,11,19,27,7.20
2011,11,11,19,28,7.20
2011,11,11,19,29,7.20
2011,11,11,19,30,7.20
2011,11,11,19,31,7.20
2011,11,11,19,32,7.20
2011,11,11,19,33,7.20
2011,11,11,19,34,7.20
2011,11,11,19,35,7.20
2011,11,11,19,36,7.20
2011,11,11,19,37,7.20
2011,11,11,19,38,7.20
2011,11,11,19,39,7.20
2011,11,11,19,40,7.20
2011,11,11,19,41,7.20
2011,11,11,19,42,7.20
2011,11,11,19,43,7.20
2011,11,11,19,44,7.20
2011,11,11,19,45,7.20
2011,11,11,19,46,7.20
2011,11,11,19,47,7.20
2011,11,11,19,48,7.20
2011,11,11,19,49,7.20
2011,11,11,19,50,7.10
2011,11,11,19,51,7.10
2011,11,11,19,52,7.10
2011,11,11,19,53,7.10
2011,11,11,19,54,7.10
2011,11,11,19,55,7.10
2011,11,11,19,56,7.10
2011,11,11,19,57,7.10
2011,11,11,19,58,7.10
2011,11,11,19,59,7.10
2011,11,11,20,00,7.10
2011,11,11,20,01,7.10
2011,11,11,20,02,7.10
2011,11,11,20,03,7.10
2011,11,11,20,04,7.10
2011,11,11,20,05,7.00
2011,11,11,20,06,7.00
2011,11,11,20,07,7.00
2011,11,11,20,08,7.00
2011,11,11,20,09,7.00
2011,11,11,20,10,7.00
2011,11,11,20,11,6.90
2011,11,11,20,12,6.90
2011,11,11,20,13,6.90
2011,11,11,20,14,6.90
2011,11,11,20,15,6.90
2011,11,11,20,16,6.90
2011,11,11,20,17,6.90
2011,11,11,20,18,6.90
2011,11,11,20,19,6.90
2011,11,11,20,20,6.90
2011,11,11,20,21,6.80
2011,11,11,20,22,6.80
2011,11,11,20,23,6.80
2011,11,11,20,24,6.80
2011,11,11,20,25,6.80
2011,11,11,20,26,6.80
2011,11,11,20,27,6.80
2011,11,11,20,28,6.80
2011,11,11,20,29,6.80
2011,11,11,20,30,6.80
2011,11,11,20,31,6.80
2011,11,11,20,32,6.80
2011,11,11,20,33,6.80
2011,11,11,20,34,6.80
2011,11,11,20,35,6.80
2011,11,11,20,36,6.80
2011,11,11,20,37,6.80
2011,11,11,20,38,6.80
2011,11,11,20,39,6.80
2011,11,11,20,40,6.80
2011,11,11,20,41,6.80
2011,11,11,20,42,6.80
2011,11,11,20,43,6.80